Location: Unspecified
(40.7945°N, 0.0000°E)
Time: 03:35:48
(UTC+00:00)

Altair - Pass Details

Date: 29 January 2021
Orbit: 1501 x 1682 km, 47.2° (Epoch: 01 March)

Event Time Altitude Azimuth Distance (km) Brightness Sun altitude
Rises 11:12:07 0° 297° (WNW) 4,939 9.8 29.7°
Reaches altitude 10° 11:15:40 10° 289° (WNW) 3,945 9.4 29.9°
Maximum altitude 11:24:22 34° 229° (SW) 2,478 9.3 30.3°
Drops below altitude 10° 11:32:55 10° 169° (SSE) 3,853 11.2 30.7°
Sets 11:36:22 0° 160° (SSE) 4,811 11.2 30.8°
